Location: Düngen
(52.0952°N, 10.0219°E)
Time: 05:39:40
(UTC+00:00)

Meteor 1-10 Rocket - Visible Passes

Search period start: 06 June 2026 00:00
Search period end: 16 June 2026 00:00
Orbit: 834 x 909 km, 81.3° (Epoch: 5 June)

Date Brightness Start Highest point End Pass type
(mag) Time Alt. Az. Time Alt. Az. Time Alt. Az.
6 Jun 5.7 21:02:33 10° SW 21:08:03 40° WNW 21:13:32 10° N visible
7 Jun 5.8 20:56:50 10° SW 21:02:19 38° WNW 21:07:46 10° N visible
8 Jun 5.9 20:51:08 10° SW 20:56:34 37° WNW 21:01:58 10° N visible
9 Jun 6.0 20:45:26 10° SW 20:50:49 36° WNW 20:56:10 10° N visible
10 Jun 6.0 20:39:43 10° SW 20:45:04 35° WNW 20:50:22 10° N visible
11 Jun 6.1 20:34:01 10° SW 20:39:19 34° WNW 20:44:35 10° N visible
12 Jun 6.2 20:28:19 10° SW 20:33:34 33° WNW 20:38:47 10° N visible
13 Jun 6.3 20:22:37 10° SW 20:27:49 32° WNW 20:32:59 10° N visible
